U33KX 11.00 56.11460 -133.1210 0.000 0.000 20200122_1325 MesoWest U33K Whale Pass AK US USARRAY current weather conditions

sailwx.info

Wind from 083 at 0 knots gusting 2

Air temperature 1.6° C
Dewpoint -0.2° C

Last reported at 2020-Jan-22 14:30 UTC.
Time now 2020-Jan-22 15:32 UTC

Location: N 56°07' W 133°07'.
View on Google Maps.

See reports from other nearby stations

  
Tides and Currents Weather Stations Pressure Air Temp Water Temp Dewpoint Dewpoint Depression Visibility Wind Speed Wind Dir Waves Ship Positions
date/time (UTC)wind fromknots sea level pressurealtimeterstation pressurevisibilityair tempwater tempwave heightnotes
2020-Jan-22 14:30 083 0 gusting 2 1.6
2020-Jan-22 14:20
2020-Jan-22 14:00 104 0 gusting 0 1.8
2020-Jan-22 13:55
2020-Jan-22 13:40 058
2020-Jan-22 13:25
2020-Jan-22 13:00 121 0 gusting 0 2.0
2020-Jan-22 12:55
2020-Jan-22 12:30 148 0 gusting 1 1.8
2020-Jan-22 12:25
2020-Jan-22 12:00 095 0 gusting 0 1.8
2020-Jan-22 11:55
2020-Jan-22 11:30 014 0 gusting 0 1.7
2020-Jan-22 11:25
2020-Jan-22 11:00 050 0 gusting 0 1.8
2020-Jan-22 10:55
2020-Jan-22 10:30 058 0 gusting 0 1.9
2020-Jan-22 10:25
2020-Jan-22 10:10 053
2020-Jan-22 09:55
2020-Jan-22 09:30 108 0 gusting 1 1.5
2020-Jan-22 09:25
2020-Jan-22 09:05 064
2020-Jan-22 08:45
2020-Jan-22 08:30 057 0 gusting 0 1.7
2020-Jan-22 08:25
2020-Jan-22 08:00 024 0 gusting 0 2.0
2020-Jan-22 07:55
2020-Jan-22 07:30 084 0 gusting 0 1.8
2020-Jan-22 07:20
2020-Jan-22 07:00 095 0 gusting 0 1.8
2020-Jan-22 06:55
2020-Jan-22 06:30 154 0 gusting 0 1.9
2020-Jan-22 06:20
2020-Jan-22 06:00 066 0 gusting 0 1.9
2020-Jan-22 05:55
2020-Jan-22 05:30 088 0 gusting 1 1.9
2020-Jan-22 05:20
2020-Jan-22 05:05 225
2020-Jan-22 04:55
2020-Jan-22 04:35 101
2020-Jan-22 04:20
2020-Jan-22 04:05 099
2020-Jan-22 03:55
2020-Jan-22 03:35 003
2020-Jan-22 03:20
2020-Jan-22 03:00 089 0 gusting 1 1.2
2020-Jan-22 02:55
2020-Jan-22 02:30 087 0 gusting 0 1.1
2020-Jan-22 02:20
2020-Jan-22 02:00 025 0 gusting 1 1.2
2020-Jan-22 01:55
2020-Jan-22 01:35 114
2020-Jan-22 01:20
2020-Jan-22 01:00 053 0 gusting 1 1.3
2020-Jan-22 00:55
2020-Jan-22 00:30 076 0 gusting 0 1.4
2020-Jan-22 00:25
2020-Jan-22 00:05 195
2020-Jan-21 23:55
2020-Jan-21 23:35 066
2020-Jan-21 23:20
2020-Jan-21 23:00 059 0 gusting 0 1.7
2020-Jan-21 22:55
2020-Jan-21 22:35 017
2020-Jan-21 22:20
2020-Jan-21 21:50 023 0 gusting 0 1.7
2020-Jan-21 21:45
2020-Jan-21 21:35 095
2020-Jan-21 21:30
2020-Jan-21 21:05 073
2020-Jan-21 20:55
2020-Jan-21 20:30 106 0 gusting 0 1.5
2020-Jan-21 19:25 134 0 gusting 2 1.1
2020-Jan-21 19:05 0.9
2020-Jan-21 18:50
2020-Jan-21 18:35 090 0 gusting 0 0.7
2020-Jan-21 18:25
2020-Jan-21 18:05 0.7
2020-Jan-21 17:50
2020-Jan-21 17:35 073 0 gusting 0 0.5
2020-Jan-21 17:25
2020-Jan-21 17:05 006 0 gusting 0 0.5
2020-Jan-21 16:50
2020-Jan-21 16:35 099 0 gusting 0 0.4
2020-Jan-21 16:25
2020-Jan-21 16:05 008 0 gusting 1 0.6
2020-Jan-21 15:50
2020-Jan-21 15:35 109 0 gusting 0 0.6
2020-Jan-21 15:25
2020-Jan-21 15:05 117 0 gusting 0 0.5
2020-Jan-21 14:55
2020-Jan-21 14:35 078 0 gusting 0 0.7
2020-Jan-21 14:20
2020-Jan-21 14:05 0.4
2020-Jan-21 13:55
2020-Jan-21 13:35 0.5
2020-Jan-21 13:20
2020-Jan-21 13:05 0.4
2020-Jan-21 12:55
2020-Jan-21 12:35 031 0 gusting 0 0.2
2020-Jan-21 12:30
2020-Jan-21 12:05 0.2
2020-Jan-21 11:55
2020-Jan-21 11:35 0.2
2020-Jan-21 11:30
2020-Jan-21 11:05 0.3
2020-Jan-21 10:55
2020-Jan-21 10:35 074 0 gusting 1 0.5
2020-Jan-21 10:20
2020-Jan-21 10:05 063 0 gusting 1 1.0
2020-Jan-21 09:55
2020-Jan-21 09:35 105 0 gusting 0 1.1
2020-Jan-21 09:30
2020-Jan-21 09:05 1.0
2020-Jan-21 08:55
2020-Jan-21 08:40 066
2020-Jan-21 08:20
2020-Jan-21 08:10
2020-Jan-21 07:50
2020-Jan-21 07:40 1.4
2020-Jan-21 07:05 025 0 gusting 0 1.6
2020-Jan-21 06:55
2020-Jan-21 06:35 1.9
2020-Jan-21 06:30
2020-Jan-21 06:05 2.0
2020-Jan-21 05:55
2020-Jan-21 05:35 053 0 gusting 0 1.8
2020-Jan-21 05:20
2020-Jan-21 05:00 060 0 gusting 1 1.7
2020-Jan-21 04:50
2020-Jan-21 04:40 101
2020-Jan-21 04:25
2020-Jan-21 04:05 1.6
2020-Jan-21 03:50
2020-Jan-21 03:35 016 0 gusting 1 1.7
2020-Jan-21 03:25
2020-Jan-21 03:05 015
2020-Jan-21 02:50
2020-Jan-21 02:35 1.6
2020-Jan-21 02:25
2020-Jan-21 02:00 004 0 gusting 1 2.0
2020-Jan-21 01:50
2020-Jan-21 01:35 1.8
2020-Jan-21 01:25
2020-Jan-21 01:00 026 0 gusting 1 2.3
2020-Jan-21 00:30 069 0 gusting 1 2.7
2020-Jan-21 00:25
2020-Jan-21 00:10 2.9
2020-Jan-20 23:55
2020-Jan-20 23:35 085
2020-Jan-20 23:25
2020-Jan-20 23:05 098
2020-Jan-20 23:00 029 0 gusting 1 3.1
2020-Jan-20 22:35 065 0 gusting 1 3.1
2020-Jan-20 22:25 060 0 gusting 1 3.1
2020-Jan-20 22:05 118
2020-Jan-20 21:50 095 0 gusting 0 2.9
2020-Jan-20 21:35 338
2020-Jan-20 21:25
2020-Jan-20 21:05 099
2020-Jan-20 21:00 082 0 gusting 0 2.1
2020-Jan-20 20:35 091
2020-Jan-20 20:25 108 0 gusting 0 1.9
2020-Jan-20 20:05 046
2020-Jan-20 19:50 102 0 gusting 0 1.8
2020-Jan-20 19:35 073
2020-Jan-20 19:25 357 0 gusting 0 1.7
2020-Jan-20 19:05 090
2020-Jan-20 18:50 069 0 gusting 1 1.1
2020-Jan-20 18:35 102
2020-Jan-20 18:25
2020-Jan-20 18:05 010
2020-Jan-20 18:00
2020-Jan-20 17:35 006
2020-Jan-20 17:25
2020-Jan-20 17:05 113
2020-Jan-20 17:00 054 0 gusting 1 0.9
2020-Jan-20 16:30 088 0 gusting 0 1.0
2020-Jan-20 16:25 090 0 gusting 1 1.0
2020-Jan-20 16:10 120
2020-Jan-20 15:50 069 0 gusting 0 1.1
2020-Jan-20 15:35 012
2020-Jan-20 15:25 022 0 gusting 0 1.0
2020-Jan-20 15:05 064